DECAYED
Showing default

BRO-4, 49066 (Decayed)

Orbit data source: Space-Track

BRO-4, 49066 was a payload satellite owned by Unseen Labs (FR) in LEO that was launched on Tue, 17 Aug 2021 UTC via a VEGA launch vehicle from the French Guiana (FRGUI). Payload-class satellites include a variety of spacecraft equipped with specific instruments for various scientific and technological missions. These include communications satellites like Starlink; space stations such as the ISS; scientific satellites like the Hubble; Earth observation satellites from companies like Planet Labs, Umbra, and HawkEye 360; GPS; miniature CubeSats for education and research; and military/defense satellites.

Not visible in the next 10 days
Identifier
49066, 2021-073A
Orbit
Decayed
Country
Flag of FRFR
Related business
Manufacturer
GOMSpace
Mission
Decayed Commercial Sigint
Bus & Motor
CUBESAT 6U, Unknown motor
Mass
10 kg wet, ~10 kg dry
Launch date (UTC)
2021-08-17 (5 years ago)
Launch vehicle
VEGA
Launch site
French Guiana (FRGUI)
Object type
Payload
Rocket body
Debris
Shape & HBR
Box, 0.1 m
Radar Cross Section
0.080 m², Medium (>0.1 m² and < 1m²)

Expand to show TLE details & history
Last TLE update: 1 year ago

TLE from 1 year ago
0 BRO-4
1 49066U 21073A   25041.18501376  .08138383  25083-5  11028-2 0  9992
2 49066  97.4077 131.8923 0008360 280.9497  79.0859 16.35299950193701
Epoch: 2025-02-10T04:26Z
TLE epoch observation values (Epoch: 2025-02-10T04:26:25.188Z)
Latitude
-0.00006°
Longitude
-75.22046°
Altitude
180.546 km
Speed
7.798 km/s
True Right ascension
08h 47m 34s
True Declination
0° 00' 00"
Sunlit
Object was in full shadow at epoch
Visualization orbit readout
Latitude
Unknown
Longitude
Unknown
Altitude
Unknown
Speed
Unknown
Apparent Right ascension
Unknown
Apparent Declination
Unknown
Sunlit
N/A
Visualization observer readout
Local Sidereal Time
23:07:33
Azimuth
Unknown
Elevation
Unknown
Doppler factor
Unknown
Orbital elements
Apogee altitude
180.628 km
Perigee altitude
169.671 km
Semi-major axis
6,553.286 km
Eccentricity
0.00084
Inclination
97.4077°
RAAN
131.8923°
Arg. of periapsis
280.9497°
True anomaly
79.17998°
Mean anomaly
79.0859°
Eccentric anomaly
79.13294°
Mean motion
4.09124 °/min
Orbital period
87.99 mins
BSTAR
0.0011028
Loading maneuver chart data...
Computing Atmospheric mass density...
Loading historical data...
Loading historical data...
Loading historical data...
Loading historical data...
Loading historical data...
Loading historical data...
Loading historical data...
Other satellites on launch #73 in the year 2021 (2021-08-17 UTC)

Documentation

Showing up to 5 results
|